STARLINK-1706 (46560 NORAD) Tracking and Keplerian Element Data

This shows tracking and keplerian element data for the satellite.

Feedback or suggestion? Click here.




ElementValue
Catalog46560
NameSTARLINK-1706
Epoch Orbit459
Epoch Day304.50002315
Epoch Year2020
RAAN323.9953
Inclination53.0008
Eccentricity0.0001353
Argument of Perigee59.2357
Mean Anonmoly10.2084
Mean Motion15.62736587
Decay Rate-0.00021373
L11 46560U 20070AE 20304.50002315 -.00021373 00000-0 -22833-3 0 9994
L22 46560 53.0008 323.9953 0001353 59.2357 10.2084 15.62736587 4599

Live tracking and technical data element details for STARLINK-1706 (NORAD 46560). STARLINK-1706 can be tracked NOW for your location showing map with azimuth and elevation plus other details from your city location.

Track the satellite on the map from your city or location and see movement details for azimuth, elevation, latitude, longitude, range, height, and movement on the map or in text.







IsCatalogInMostPopularTable: catalog: 46560, numindb: 3
Update: records affected: 1



GetName: 46560 STARLINK-1706

Hit Count: updated at: Sat, 31 Oct 2020 06:40:47 GMT